Weather History for KBOW - July, 2012

Change the Weather History Date:

Saturday, July 7, 2012

  Actual Average Record
Temperature  
Mean Temperature 82 °F -  
Max Temperature 93 °F 93 °F 98 °F (1981)
Min Temperature 71 °F 72 °F 64 °F (1947)
Cooling Degree Days 17    
Growing Degree Days 32 (Base 50)    
Moisture  
Dew Point 70 °F    
Average Humidity 77    
Maximum Humidity 100    
Minimum Humidity 34    
Precipitation  
Precipitation 0.00 in - - ()
Sea Level Pressure  
Sea Level Pressure 30.08 in    
Wind  
Wind Speed 3 mph (ESE)    
Max Wind Speed 12 mph    
Max Gust Speed -    
Visibility 10 miles    
Events Thunderstorm    
Averages and records for this station are not official NWS values.
T = Trace of Precipitation, MM = Missing Value Source: NWS Daily Summary

Daily Weather History Graph

Daily Weather History Graph

Search for Another Location

Airport or City:

Trip Planner

Search our weather history database for the weather conditions in past years. The results will help you decide how hot, cold, wet, or windy it might be!

Date:

Astronomy

Jul. 07, 2012 Rise Set
Actual Time 6:37 AM EDT 8:27 PM EDT
Civil Twilight 6:10 AM EDT 8:53 PM EDT
Nautical Twilight 5:38 AM EDT 9:25 PM EDT
Astronomical Twilight 5:05 AM EDT 9:58 PM EDT
Moon 11:14 PM EDT (7/7) 10:35 AM EDT (7/7)
Length of Visible Light 14h 42m
Length of Day
13h 49m
Waning Gibbous, 82% of the Moon is Illuminated
Jul 7
Waning Gibbous
Jul 10
Last Quarter
Jul 19
New
Jul 26
First Quarter
Aug 1
Full

Hourly Weather History & Observations

Time (EDT) Temp. Heat Index Dew Point Humidity Pressure Visibility Wind Dir Wind Speed Gust Speed Precip Events Conditions
12:15 AM 75.2 °F - 73.4 °F 94% 30.08 in 9.0 mi ENE 3.5 mph - N/A   Scattered Clouds
12:35 AM 73.4 °F - 73.4 °F 100% 30.08 in 10.0 mi Calm Calm - N/A   Scattered Clouds
1:15 AM 73.4 °F - 73.4 °F 100% 30.08 in 9.0 mi Calm Calm - N/A   Partly Cloudy
1:35 AM 73.4 °F - 73.4 °F 100% 30.09 in 10.0 mi SE 3.5 mph - N/A   Partly Cloudy
1:55 AM 73.4 °F - 73.4 °F 100% 30.09 in 9.0 mi Calm Calm - N/A   Scattered Clouds
2:15 AM 73.4 °F - 73.4 °F 100% 30.09 in 9.0 mi Calm Calm - N/A   Mostly Cloudy
2:55 AM 73.4 °F - 73.4 °F 100% 30.08 in 10.0 mi Calm Calm - N/A   Scattered Clouds
3:15 AM 73.4 °F - 73.4 °F 100% 30.08 in 10.0 mi Calm Calm - N/A   Scattered Clouds
3:35 AM 71.6 °F - 71.6 °F 100% 30.07 in 8.0 mi Calm Calm - N/A   Scattered Clouds
3:55 AM 71.6 °F - 71.6 °F 100% 30.07 in 9.0 mi Calm Calm - N/A   Partly Cloudy
4:15 AM 71.6 °F - 71.6 °F 100% 30.07 in 9.0 mi Calm Calm - N/A   Partly Cloudy
4:35 AM 73.4 °F - 73.4 °F 100% 30.07 in 9.0 mi Calm Calm - N/A   Scattered Clouds
4:55 AM 73.4 °F - 73.4 °F 100% 30.08 in 9.0 mi NW 3.5 mph - N/A   Scattered Clouds
5:15 AM 71.6 °F - 71.6 °F 100% 30.07 in 9.0 mi Calm Calm - N/A   Scattered Clouds
5:35 AM 71.6 °F - 71.6 °F 100% 30.07 in 10.0 mi Calm Calm - N/A   Scattered Clouds
5:55 AM 71.6 °F - 71.6 °F 100% 30.07 in 9.0 mi Calm Calm - N/A   Partly Cloudy
6:15 AM 71.6 °F - 71.6 °F 100% 30.08 in 8.0 mi Calm Calm - N/A   Partly Cloudy
6:35 AM 71.6 °F - 71.6 °F 100% 30.08 in 8.0 mi Calm Calm - N/A   Scattered Clouds
7:15 AM 71.6 °F - 71.6 °F 100% 30.10 in 8.0 mi Calm Calm - N/A   Partly Cloudy
7:30 AM 71.6 °F - 71.6 °F 100% 30.11 in 12.0 mi Calm Calm - N/A   Scattered Clouds
7:50 AM 73.4 °F - 73.4 °F 100% 30.11 in 12.0 mi Calm Calm - N/A   Scattered Clouds
8:50 AM 78.8 °F - 75.2 °F 89% 30.11 in 12.0 mi Calm Calm - N/A   Scattered Clouds
9:50 AM 80.6 °F 85.4 °F 73.4 °F 79% 30.11 in 15.0 mi SSE 4.6 mph - N/A   Scattered Clouds
10:51 AM 84.2 °F 89.6 °F 71.6 °F 66% 30.11 in 15.0 mi Calm Calm - N/A   Scattered Clouds
11:55 AM 87.8 °F 92.6 °F 69.8 °F 55% 30.12 in 15.0 mi SSE 4.6 mph - N/A   Scattered Clouds
12:52 PM 87.8 °F 91.4 °F 68.0 °F 52% 30.10 in 15.0 mi Calm Calm - N/A   Scattered Clouds
1:50 PM 91.4 °F 92.1 °F 62.6 °F 38% 30.09 in 15.0 mi Calm Calm - N/A   Scattered Clouds
2:51 PM 91.4 °F 93.2 °F 64.4 °F 41% 30.09 in 12.0 mi East 6.9 mph - N/A   Scattered Clouds
3:50 PM 93.2 °F 93.3 °F 60.8 °F 34% 30.07 in 10.0 mi SE 10.4 mph - N/A   Scattered Clouds
4:51 PM 93.2 °F 94.1 °F 62.6 °F 36% 30.06 in 10.0 mi ESE 6.9 mph - N/A   Scattered Clouds
5:35 PM 93.2 °F 94.9 °F 64.4 °F 38% 30.05 in 8.0 mi SE 4.6 mph - N/A   Scattered Clouds
5:55 PM 91.4 °F 93.2 °F 64.4 °F 41% 30.04 in 8.0 mi East 10.4 mph - N/A   Partly Cloudy
6:15 PM 91.4 °F 93.2 °F 64.4 °F 41% 30.04 in 8.0 mi East 6.9 mph - N/A   Mostly Cloudy
6:35 PM 89.6 °F 92.2 °F 66.2 °F 46% 30.04 in 7.0 mi SE 9.2 mph - N/A   Overcast
6:55 PM 86.0 °F 88.2 °F 66.2 °F 51% 30.06 in 8.0 mi ESE 11.5 mph - N/A   Overcast
7:15 PM 86.0 °F 89.4 °F 68.0 °F 55% 30.05 in 8.0 mi East 5.8 mph - N/A   Overcast
7:35 PM 87.8 °F 92.6 °F 69.8 °F 55% 30.05 in 8.0 mi East 5.8 mph - N/A   Mostly Cloudy
7:55 PM 86.0 °F 90.4 °F 69.8 °F 58% 30.06 in 8.0 mi East 5.8 mph - N/A   Mostly Cloudy
8:15 PM 84.2 °F 88.4 °F 69.8 °F 62% 30.06 in 9.0 mi East 8.1 mph - N/A   Mostly Cloudy
8:35 PM 84.2 °F 88.4 °F 69.8 °F 62% 30.06 in 8.0 mi East 5.8 mph - N/A   Mostly Cloudy
8:55 PM 82.4 °F 86.3 °F 69.8 °F 66% 30.07 in 10.0 mi East 8.1 mph - N/A   Mostly Cloudy
9:35 PM 82.4 °F 87.2 °F 71.6 °F 70% 30.07 in 9.0 mi ESE 6.9 mph - N/A   Mostly Cloudy
9:55 PM 80.6 °F 84.6 °F 71.6 °F 74% 30.08 in 10.0 mi ESE 3.5 mph - N/A   Mostly Cloudy
10:15 PM 80.6 °F 84.6 °F 71.6 °F 74% 30.09 in 10.0 mi ESE 4.6 mph - N/A   Mostly Cloudy
10:35 PM 78.8 °F - 71.6 °F 78% 30.10 in 10.0 mi ESE 4.6 mph - N/A   Mostly Cloudy
10:55 PM 78.8 °F - 71.6 °F 78% 30.10 in 10.0 mi SE 6.9 mph - N/A   Scattered Clouds
11:15 PM 78.8 °F - 71.6 °F 78% 30.11 in 10.0 mi SSE 6.9 mph - N/A   Scattered Clouds
11:35 PM 78.8 °F - 71.6 °F 78% 30.11 in 10.0 mi South 4.6 mph - N/A Thunderstorm Scattered Clouds
11:55 PM 78.8 °F - 71.6 °F 78% 30.11 in 10.0 mi SSE 5.8 mph - N/A   Scattered Clouds